Regional Weather Roundup
Issued by NWS Little Rock, AR

Home | Current Version | Previous Version | Text Only | Print | Product List | Glossary On
Versions: 1 2 3 4 5 6 7 8 9 10 11 12 13 14 15 16 17 18 19 20 21 22 23 24 25 26 27 28 29 30 31 32 33 34 35 36 37 38 39 40 41 42 43 44 45 46 47 48 49 50
000
ASUS44 KLZK 200305
RWRLZK

WEATHER ROUNDUP FOR ARKANSAS
NATIONAL WEATHER SERVICE LITTLE ROCK AR
900 PM CST FRI DEC 19 2014

NOTE: "FAIR" INDICATES FEW OR NO CLOUDS BELOW 12,000 FEET WITH NO
SIGNIFICANT WEATHER AND/OR OBSTRUCTIONS TO VISIBILITY.

ARZ001-003-010-029-200400-
NORTHWEST ARKANSAS

CITY           SKY/WX    TMP DP  RH WIND       PRES   REMARKS
FAYETTEVILLE   CLOUDY    41  41 100 SW3       30.20R
FORT SMITH     CLOUDY    43  39  86 NE3       30.22R FOG
HARRISON       FOG       36  36 100 SE7       30.19F VSB 1/4
BENTONVILLE    CLOUDY    41  37  87 CALM      30.19S
ROGERS         CLOUDY    40  39  97 SE3       30.19S FOG
SILOAM SPGS    CLOUDY    39  36  87 CALM      30.21R
HIGHFILL       CLOUDY    41  40  96 CALM      30.18S FOG
SPRINGDALE     CLOUDY    41  41 100 CALM      30.20S FOG
$$

ARZ004-005-016-200400-
NORTH CENTRAL ARKANSAS

CITY           SKY/WX    TMP DP  RH WIND       PRES   REMARKS
BATESVILLE     CLOUDY    39  34  81 CALM      30.25S
FLIPPIN        CLOUDY    37  32  81 CALM      30.23R
MTN HOME       LGT RAIN  36  35  96 E3        30.22S FOG
$$

ARZ040-041-200400-
WEST CENTRAL ARKANSAS

CITY           SKY/WX    TMP DP  RH WIND       PRES   REMARKS
MENA           CLOUDY    43  43 100 CALM      30.19S
MOUNT IDA      CLOUDY    42  40  92 CALM      30.18F FOG
$$

ARZ009-017-025-026-028-200400-
NORTHEAST ARKANSAS

CITY           SKY/WX    TMP DP  RH WIND       PRES   REMARKS
CORNING        CLOUDY    37  32  81 NE3       30.27R
JONESBORO      CLOUDY    39  34  82 E7        30.25S
NEWPORT        CLOUDY    39  36  89 N5        30.27S
WALNUT RIDGE   CLOUDY    37  30  75 NE7       30.26R
BLYTHEVILLE    CLOUDY    39  36  89 NE6       30.26S
$$

ARZ022-023-033-042-044-200400-
CENTRAL ARKANSAS

CITY           SKY/WX    TMP DP  RH WIND       PRES   REMARKS
LITTLE ROCK    CLOUDY    42  35  76 NE8       30.25S
N LITTLE ROCK  CLOUDY    39  38  96 N5        30.25S
JACKSONVILLE   CLOUDY    40  37  87 NE3       30.24S
SEARCY         CLOUDY    40  36  86 NE6       30.26S
HOT SPRINGS    CLOUDY    41  38  89 E9        30.22F
RUSSELLVILLE   CLOUDY    42  38  85 E5        30.22F
CLINTON        CLOUDY    39  36  87 CALM      30.25F FOG
$$

ARZ036-200400-
EAST ARKANSAS

CITY           SKY/WX    TMP DP  RH WIND       PRES   REMARKS
WEST MEMPHIS   CLOUDY    41  36  82 E6        30.23S
$$

ARZ050-053-066-070-073-200400-
SOUTHWEST ARKANSAS

CITY           SKY/WX    TMP DP  RH WIND       PRES   REMARKS
ARKADELPHIA    CLOUDY    44  43  97 NE6       30.23S
CAMDEN         CLOUDY    45  39  81 MISG      30.22S
TEXARKANA      CLOUDY    44  42  93 NE6       30.21R
EL DORADO      CLOUDY    45  42  89 N5        30.21S
DE QUEEN       CLOUDY    44  42  93 E5        30.20S
$$

ARZ056-057-069-200400-
SOUTHEAST ARKANSAS

CITY           SKY/WX    TMP DP  RH WIND       PRES   REMARKS
PINE BLUFF     CLOUDY    42  37  82 NE8       30.23F
STUTTGART      CLOUDY    41  36  81 N7        30.25S
MONTICELLO     CLOUDY    45  40  82 VRB3      30.21S

$$




USA.gov is the U.S. government's official web portal to all federal, state and local government web resources and services.